TimePDT,TemperatureF,Dew PointF,Humidity,Sea Level PressureIn,VisibilityMPH,Wind Direction,Wind SpeedMPH,Gust SpeedMPH,PrecipitationIn,Events,Conditions,WindDirDegrees,DateUTC
12:56 AM,34.0,9.0,35,30.01,10.0,NW,5.8,-,N/A,,Clear,320,2014-03-18 07:56:00
1:56 AM,28.9,9.0,43,30.01,10.0,East,3.5,-,N/A,,Clear,90,2014-03-18 08:56:00
2:56 AM,30.9,9.0,40,30.02,10.0,Calm,Calm,-,N/A,,Clear,0,2014-03-18 09:56:00
3:56 AM,26.1,8.1,47,30.00,10.0,North,3.5,-,N/A,,Clear,360,2014-03-18 10:56:00
4:56 AM,25.0,8.1,49,30.01,10.0,NW,4.6,-,N/A,,Clear,320,2014-03-18 11:56:00
5:56 AM,24.1,10.0,55,30.01,10.0,Calm,Calm,-,N/A,,Clear,0,2014-03-18 12:56:00
6:17 AM,25.0,10.0,53,30.12,10.0,Calm,Calm,-,N/A,,Mostly Cloudy,0,2014-03-18 13:17:00
6:56 AM,25.0,10.0,53,30.02,10.0,SSW,3.5,-,N/A,,Mostly Cloudy,210,2014-03-18 13:56:00
7:56 AM,30.9,10.9,43,30.04,10.0,WSW,4.6,-,N/A,,Scattered Clouds,250,2014-03-18 14:56:00
8:56 AM,37.0,10.9,34,30.05,10.0,North,9.2,-,N/A,,Partly Cloudy,360,2014-03-18 15:56:00
9:56 AM,41.0,10.9,29,30.07,10.0,NNE,8.1,-,N/A,,Clear,20,2014-03-18 16:56:00
10:56 AM,43.0,10.9,27,30.07,10.0,North,10.4,-,N/A,,Clear,10,2014-03-18 17:56:00
11:56 AM,44.1,10.9,26,30.06,10.0,North,8.1,-,N/A,,Clear,350,2014-03-18 18:56:00
12:56 PM,46.9,9.0,21,30.04,10.0,Variable,3.5,-,N/A,,Clear,0,2014-03-18 19:56:00
1:56 PM,46.9,9.0,21,30.02,10.0,Variable,4.6,-,N/A,,Clear,0,2014-03-18 20:56:00
2:56 PM,50.0,9.0,19,30.00,10.0,NE,8.1,-,N/A,,Clear,40,2014-03-18 21:56:00
3:56 PM,51.1,8.1,18,30.00,10.0,Variable,5.8,-,N/A,,Clear,0,2014-03-18 22:56:00
4:56 PM,51.1,8.1,18,29.99,10.0,NNE,8.1,-,N/A,,Partly Cloudy,20,2014-03-18 23:56:00
5:56 PM,50.0,7.0,18,29.98,10.0,NNE,8.1,-,N/A,,Partly Cloudy,30,2014-03-19 00:56:00
6:56 PM,46.0,9.0,22,29.98,10.0,North,5.8,-,N/A,,Partly Cloudy,360,2014-03-19 01:56:00
7:56 PM,39.0,9.0,29,29.99,10.0,NNE,5.8,-,N/A,,Partly Cloudy,30,2014-03-19 02:56:00
8:56 PM,34.0,8.1,34,30.01,10.0,NNE,6.9,-,N/A,,Partly Cloudy,20,2014-03-19 03:56:00
9:56 PM,34.0,9.0,35,30.02,10.0,West,3.5,-,N/A,,Clear,280,2014-03-19 04:56:00
10:56 PM,34.0,9.0,35,30.03,10.0,West,4.6,-,N/A,,Clear,260,2014-03-19 05:56:00
11:56 PM,28.9,8.1,41,30.03,10.0,NNW,4.6,-,N/A,,Clear,340,2014-03-19 06:56:00